This is the latest recevied weather packets stored in our database for station/object ED1ZAI-13. If no packets are shown the sender has not sent any weather packets the latest 10 day(s).
| Time | Temp. | Humidity | Pressure | Rain* | Wind** | Luminosity | Snow |
|---|---|---|---|---|---|---|---|
| 1777927572 | 11.11° C | 73% | 1011.6 hPa | 0 mm | - | - | - |
| 1777926974 | 11.11° C | 75% | 1011.7 hPa | 0 mm | - | - | - |
| 1777926374 | 11.11° C | 73% | 1011.5 hPa | 0 mm | - | - | - |
| 1777925772 | 11.11° C | 72% | 1011.3 hPa | 0 mm | - | - | - |
| 1777925172 | 11.67° C | 70% | 1011.2 hPa | 0 mm | - | - | - |
| 1777924574 | 12.22° C | 68% | 1011.2 hPa | 0 mm | - | - | - |
| 1777923974 | 11.67° C | 74% | 1011.1 hPa | 0 mm | - | - | - |
| 1777923373 | 11.11° C | 75% | 1010.9 hPa | 0 mm | - | - | - |
| 1777922773 | 11.11° C | 74% | 1010.9 hPa | 0 mm | - | - | - |
| 1777922172 | 11.11° C | 73% | 1010.8 hPa | 0 mm | - | - | - |
| 1777921572 | 11.67° C | 71% | 1010.8 hPa | 0 mm | - | - | - |
| 1777920974 | 11.67° C | 68% | 1010.8 hPa | 0 mm | - | - | - |
| 1777920374 | 13.33° C | 62% | 1010.6 hPa | 0 mm | - | - | - |
| 1777919773 | 13.33° C | 65% | 1010.6 hPa | 0 mm | - | - | - |
| 1777919173 | 13.33° C | 66% | 1010.5 hPa | 0 mm | - | - | - |
| 1777918573 | 12.22° C | 70% | 1010.5 hPa | 0 mm | - | - | - |
| 1777917973 | 11.67° C | 71% | 1010.6 hPa | 0 mm | - | - | - |
| 1777917372 | 10.56° C | 74% | 1010.6 hPa | 0 mm | - | - | - |
| 1777916774 | 11.67° C | 71% | 1010.6 hPa | 0 mm | - | - | - |
| 1777916174 | 11.11° C | 71% | 1010.7 hPa | 0 mm | - | - | - |
| 1777915572 | 11.11° C | 75% | 1010.7 hPa | 0 mm | - | - | - |
| 1777914972 | 11.67° C | 73% | 1010.6 hPa | 0 mm | - | - | - |
| 1777914374 | 11.11° C | 74% | 1010.7 hPa | 0 mm | - | - | - |
| 1777913774 | 11.11° C | 72% | 1010.6 hPa | 0 mm | - | - | - |
| 1777913173 | 10.56° C | 72% | 1010.6 hPa | 0 mm | - | - | - |
* Rain latest hour (hover to see other rain measurements)
** Current wind speed in m/s (hover to see current wind gust speed)